FW0663 Weather Reports


Display with metric or nautical units.
time (UTC)temp
F
wind
direction
speed
MPH
gust
MPH
rain 1hr
in
rain 24hr
in
rain mn
in
humidity
%
barometer
mb
20260504201507 80 360 4.0 16.0 0.00 0.00 0.00 25 1008.8
20260504200004 78 321 8.0 17.0 0.00 0.00 0.00 24 1008.8
20260504194601 78 337 6.0 11.0 0.00 0.00 0.00 26 1009.0
20260504193059 78 275 5.0 12.0 0.00 0.00 0.00 26 1009.1
20260504191609 78 340 4.0 11.0 0.00 0.00 0.00 30 1009.2
20260504190055 77 336 4.0 14.0 0.00 0.00 0.00 30 1009.5
20260504184550 76 246 3.0 10.0 0.00 0.00 0.00 31 1009.8
20260504183048 75 78 3.0 10.0 0.00 0.00 0.00 31 1009.9
20260504181545 75 267 2.0 10.0 0.00 0.00 0.00 33 1010.1
20260504180042 73 333 3.0 7.0 0.00 0.00 0.00 33 1010.4
20260504174538 72 244 2.0 6.0 0.00 0.00 0.00 34 1010.6
20260504173034 70 11 1.0 4.0 0.00 0.00 0.00 34 1010.7
20260504171530 68 12 1.0 5.0 0.00 0.00 0.00 35 1010.8
20260504081524 47 119 1.0 3.0 0.00 0.00 0.00 68 1011.2
20260504050003 56 82 0.0 2.0 0.00 0.00 0.00 49 1010.2
20260504044509 57 98 1.0 2.0 0.00 0.00 0.00 50 1010.2
20260504043007 58 109 0.0 2.0 0.00 0.00 0.00 48 1010.1
20260504041502 62 74 0.0 3.0 0.00 0.00 0.00 43 1009.9
20260504040002 63 111 1.0 3.0 0.00 0.00 0.00 42 1009.7
20260504034502 67 99 0.0 2.0 0.00 0.00 0.00 34 1009.7
20260504033001 72 98 0.0 5.0 0.00 0.00 0.00 28 1009.5
20260504031602 73 337 2.0 6.0 0.00 0.00 0.00 27 1009.3
20260504030118 74 350 1.0 7.0 0.00 0.00 0.00 26 1009.2
20260504024600 75 339 2.0 6.0 0.00 0.00 0.00 26 1008.9
20260504023059 76 25 2.0 5.0 0.00 0.00 0.00 25 1008.9
20260504021558 77 231 2.0 9.0 0.00 0.00 0.00 25 1008.8
20260504020106 78 23 2.0 9.0 0.00 0.00 0.00 24 1008.8
20260504014606 79 35 4.0 11.0 0.00 0.00 0.00 24 1008.8
20260504013058 80 36 2.0 8.0 0.00 0.00 0.00 23 1008.8
20260504011557 80 299 2.0 7.0 0.00 0.00 0.00 24 1008.8
20260504010100 80 85 2.0 7.0 0.00 0.00 0.00 24 1009.0
20260504004553 81 28 2.0 7.0 0.00 0.00 0.00 26 1008.9
20260504003051 81 97 2.0 6.0 0.00 0.00 0.00 22 1009.1
20260504001557 81 87 2.0 6.0 0.00 0.00 0.00 23 1009.2
20260504000054 81 325 2.0 7.0 0.00 0.00 0.00 24 1009.3
20260503234545 80 335 1.0 8.0 0.00 0.00 0.00 23 1009.6
20260503233044 79 360 1.0 8.0 0.00 0.00 0.00 26 1009.8
20260503231541 77 113 1.0 9.0 0.00 0.00 0.00 27 1009.9
20260503230056 76 57 1.0 5.0 0.00 0.00 0.00 35 1010.4
20260503224537 75 76 2.0 9.0 0.00 0.00 0.00 34 1010.6
20260503223038 75 63 1.0 6.0 0.00 0.00 0.00 35 1010.7
20260503221538 75 49 1.0 8.0 0.00 0.00 0.00 32 1010.9
20260503220037 74 31 2.0 7.0 0.00 0.00 0.00 37 1011.2
20260503214545 75 63 2.0 6.0 0.00 0.00 0.00 31 1011.4
20260503213033 74 84 3.0 7.0 0.00 0.00 0.00 36 1011.7
20260503211528 75 90 3.0 10.0 0.00 0.00 0.00 33 1011.8
20260503210027 78 338 3.0 12.0 0.00 0.00 0.00 28 1011.7
20260503204530 80 33 3.0 7.0 0.00 0.00 0.00 23 1011.8
20260503203025 79 82 2.0 7.0 0.00 0.00 0.00 25 1011.8